M I D A S
Marine Information and Data Acquisition System
Tripno 2281 of the Zeeleeuw from 2012-03-27 06:35:23 to 2012-03-27 13:54:23
Back to CruiseResearch ActivitiesStationsMapUnderway DataData graphs

EquipmentUnitsComments
TimeDGPSUTC
LatitudeDGPSDM.mWGS84
LongitudeDGPSDM.mWGS84
SpeedMeteo Stationm/sRelative wind speed
DirectionMeteo StationdegRelative wind direction
TemperatureMeteo Stationdeg CelciusAir temperature
PressureMeteo StationPaAtmospheric pressure
HumidityMeteo Station%Relative humidity
Missing or incorrect values are displayed as -999
Metereological data collected by the RV Zeeleeuw from 2012-03-27 06:24:12 to 2012-03-27 14:08:26
                                                                                    Next 1000 lines
Time Latitude Longitude Speed Direction Temperature Pressure Humidity
2012-03-27 06:24:22 51°13.635 2°56.017 0.1 252 7.5 103590 49
2012-03-27 06:24:27 51°13.635 2°56.017 0.1 252 7.5 103590 49
2012-03-27 06:24:32 51°13.635 2°56.017 0.1 252 7.5 103590 49
2012-03-27 06:24:36 51°13.635 2°56.017 0.1 252 7.5 103590 49
2012-03-27 06:24:41 51°13.635 2°56.017 0.1 252 7.5 103590 49
2012-03-27 06:24:46 51°13.635 2°56.018 0.1 252 -999 -999 -999
2012-03-27 06:24:52 51°13.635 2°56.018 -999 -999 -999 -999 -999
2012-03-27 06:24:56 51°13.635 2°56.018 -999 254 -999 -999 -999
2012-03-27 06:25:01 51°13.635 2°56.018 0.6 281 -999 -999 -999
2012-03-27 06:25:07 51°13.635 2°56.018 0.2 20 -999 -999 -999
2012-03-27 06:25:12 51°13.635 2°56.017 1.5 277 -999 -999 -999
2012-03-27 06:25:16 51°13.635 2°56.018 1.4 21 7.5 -999 33
2012-03-27 06:25:21 51°13.635 2°56.017 1.1 280 7.5 -999 33
2012-03-27 06:25:26 51°13.635 2°56.017 0.8 254 7.5 -999 50
2012-03-27 06:25:32 51°13.635 2°56.017 1.8 285 7.5 -999 50
2012-03-27 06:25:36 51°13.635 2°56.018 0.9 251 7.5 103580 49
2012-03-27 06:25:41 51°13.635 2°56.018 1.2 280 7.5 103580 49
2012-03-27 06:25:47 51°13.635 2°56.018 0.5 247 7.5 103580 50
2012-03-27 06:25:52 51°13.635 2°56.017 0.4 288 7.5 103580 50
2012-03-27 06:25:57 51°13.635 2°56.017 0.1 248 7.5 103580 50
2012-03-27 06:26:02 51°13.635 2°56.017 0.1 283 7.5 103580 50
2012-03-27 06:26:07 51°13.635 2°56.017 -999 23 7.5 103580 50
2012-03-27 06:26:12 51°13.635 2°56.017 -999 283 7.5 103580 50
2012-03-27 06:26:17 51°13.635 2°56.017 -999 249 7.5 103580 50
2012-03-27 06:26:22 51°13.635 2°56.017 -999 283 7.5 103580 50
2012-03-27 06:26:27 51°13.636 2°56.017 -999 248 7.5 103590 49
2012-03-27 06:26:32 51°13.636 2°56.017 -999 283 7.5 103590 49
2012-03-27 06:26:37 51°13.636 2°56.017 -999 23 7.5 103580 49
2012-03-27 06:26:42 51°13.636 2°56.017 -999 283 7.5 103580 49
2012-03-27 06:26:46 51°13.636 2°56.017 -999 241 7.5 103580 50
2012-03-27 06:26:51 51°13.636 2°56.017 -999 283 7.5 103580 50
2012-03-27 06:26:57 51°13.636 2°56.017 -999 247 7.5 103580 50
2012-03-27 06:27:02 51°13.636 2°56.017 -999 283 7.5 103580 50
2012-03-27 06:27:07 51°13.636 2°56.017 -999 248 7.5 103580 50
2012-03-27 06:27:12 51°13.636 2°56.017 -999 283 7.5 103580 50
2012-03-27 06:27:17 51°13.636 2°56.017 -999 241 7.5 103580 49
2012-03-27 06:27:22 51°13.636 2°56.017 0.1 283 7.5 103580 49
2012-03-27 06:27:26 51°13.636 2°56.017 1 250 7.5 103580 50
2012-03-27 06:27:31 51°13.636 2°56.017 0.1 282 7.5 103580 50
2012-03-27 06:27:36 51°13.636 2°56.017 0.7 21 7.5 103580 50
2012-03-27 06:27:42 51°13.636 2°56.017 0.8 278 7.5 103580 50
2012-03-27 06:27:47 51°13.636 2°56.017 0.2 245 7.5 103590 50
2012-03-27 06:27:51 51°13.636 2°56.017 0.1 283 7.5 103590 50
2012-03-27 06:27:56 51°13.636 2°56.017 1 245 7.5 103590 50
2012-03-27 06:28:01 51°13.636 2°56.017 1.1 282 7.5 103590 50
2012-03-27 06:28:06 51°13.636 2°56.017 0.2 256 7.5 103590 50
2012-03-27 06:28:11 51°13.636 2°56.017 0.1 283 7.5 103590 50
2012-03-27 06:28:16 51°13.636 2°56.017 0.1 254 7.5 103590 49
2012-03-27 06:28:21 51°13.636 2°56.017 0.1 283 7.5 103590 49
2012-03-27 06:28:26 51°13.636 2°56.017 0.1 249 7.5 103590 50
2012-03-27 06:28:31 51°13.636 2°56.017 -999 283 7.5 103590 50
2012-03-27 06:28:36 51°13.636 2°56.017 -999 239 7.5 103590 50
2012-03-27 06:28:41 51°13.636 2°56.017 -999 278 7.5 103590 50
2012-03-27 06:28:47 51°13.636 2°56.017 1.9 250 7.5 103590 50
2012-03-27 06:28:52 51°13.636 2°56.017 2.1 286 7.5 103590 50
2012-03-27 06:28:56 51°13.636 2°56.017 2.2 249 7.5 103590 49
2012-03-27 06:29:01 51°13.636 2°56.017 2.1 287 7.5 103590 49
2012-03-27 06:29:06 51°13.636 2°56.017 1.5 31 7.6 103590 49
2012-03-27 06:29:11 51°13.636 2°56.017 1.2 282 7.6 103590 49
2012-03-27 06:29:16 51°13.636 2°56.018 2 19 7.6 103590 50
2012-03-27 06:29:22 51°13.636 2°56.018 1.5 280 7.6 103590 50
2012-03-27 06:29:26 51°13.636 2°56.018 1.6 23 7.6 103590 49
2012-03-27 06:29:32 51°13.637 2°56.018 1.3 282 7.6 103590 49
2012-03-27 06:29:36 51°13.636 2°56.018 1.2 18 7.6 103590 49
2012-03-27 06:29:41 51°13.636 2°56.018 1.4 278 7.6 103590 49
2012-03-27 06:29:46 51°13.636 2°56.018 1.5 246 7.6 103590 49
2012-03-27 06:29:51 51°13.636 2°56.018 1.6 280 7.6 103590 49
2012-03-27 06:29:57 51°13.636 2°56.018 1.3 245 7.6 103590 49
2012-03-27 06:30:02 51°13.636 2°56.018 1.5 283 7.6 103590 49
2012-03-27 06:30:06 51°13.636 2°56.018 0.8 244 7.6 103590 49
2012-03-27 06:30:11 51°13.636 2°56.018 0.3 283 7.6 103590 49
2012-03-27 06:30:17 51°13.637 2°56.018 0.1 23 7.6 103590 50
2012-03-27 06:30:22 51°13.636 2°56.017 0.1 283 7.6 103590 50
2012-03-27 06:30:26 51°13.636 2°56.017 -999 23 7.6 103590 49
2012-03-27 06:30:31 51°13.637 2°56.018 1 288 7.6 103590 49
2012-03-27 06:30:36 51°13.636 2°56.018 1.9 243 7.6 103590 49
2012-03-27 06:30:42 51°13.634 2°56.019 1.3 288 7.6 103590 49
2012-03-27 06:30:47 51°13.633 2°56.019 2 21 7.6 103590 49
2012-03-27 06:30:52 51°13.633 2°56.019 1.4 280 7.6 103590 49
2012-03-27 06:30:56 51°13.633 2°56.019 1.4 22 7.6 103590 49
2012-03-27 06:31:01 51°13.633 2°56.019 1 279 7.6 103590 49
2012-03-27 06:31:06 51°13.634 2°56.019 0.9 247 7.6 103590 49
2012-03-27 06:31:11 51°13.634 2°56.019 1.3 278 7.6 103590 49
2012-03-27 06:31:15 51°13.634 2°56.019 1 19 7.6 103590 49
2012-03-27 06:31:21 51°13.634 2°56.019 1.1 282 7.6 103590 49
2012-03-27 06:31:27 51°13.634 2°56.018 1.3 244 7.6 103590 50
2012-03-27 06:31:32 51°13.634 2°56.018 1 287 7.6 103590 50
2012-03-27 06:31:36 51°13.634 2°56.018 1.3 26 7.7 103590 49
2012-03-27 06:31:41 51°13.634 2°56.018 1.1 285 7.7 103590 49
2012-03-27 06:31:46 51°13.634 2°56.018 1.3 253 7.6 103590 50
2012-03-27 06:31:51 51°13.633 2°56.018 1.5 278 7.6 103590 50
2012-03-27 06:31:56 51°13.634 2°56.018 1.3 245 7.6 103590 49
2012-03-27 06:32:02 51°13.634 2°56.019 1.4 278 7.6 103590 49
2012-03-27 06:32:06 51°13.634 2°56.019 1.6 21 7.7 103590 49
2012-03-27 06:32:11 51°13.635 2°56.019 1.8 283 7.7 103590 49
2012-03-27 06:32:16 51°13.635 2°56.019 1.8 248 7.7 103590 50
2012-03-27 06:32:21 51°13.635 2°56.019 1.3 285 7.7 103590 50
2012-03-27 06:32:26 51°13.635 2°56.019 0.4 248 7.7 103590 49
2012-03-27 06:32:31 51°13.635 2°56.019 0.1 283 7.7 103590 49
2012-03-27 06:32:37 51°13.635 2°56.019 0.1 252 7.7 103590 48
2012-03-27 06:32:42 51°13.635 2°56.019 0.8 279 7.7 103590 48
2012-03-27 06:32:47 51°13.635 2°56.019 1.2 251 7.7 103590 49
2012-03-27 06:32:51 51°13.635 2°56.019 0.8 279 7.7 103590 49
2012-03-27 06:32:57 51°13.636 2°56.019 0.9 251 7.7 103590 49
2012-03-27 06:33:02 51°13.636 2°56.019 0.8 285 7.7 103590 49
2012-03-27 06:33:07 51°13.636 2°56.018 1.4 21 7.7 103590 49
2012-03-27 06:33:11 51°13.636 2°56.018 2 283 7.7 103590 49
2012-03-27 06:33:17 51°13.636 2°56.018 1.1 252 7.7 103590 49
2012-03-27 06:33:22 51°13.636 2°56.019 0.9 287 7.7 103590 49
2012-03-27 06:33:27 51°13.636 2°56.018 0.2 22 7.7 103590 49
2012-03-27 06:33:31 51°13.636 2°56.018 0.7 287 7.7 103590 49
2012-03-27 06:33:37 51°13.635 2°56.019 1 250 7.7 103590 49
2012-03-27 06:33:42 51°13.634 2°56.019 0.4 288 7.7 103590 49
2012-03-27 06:33:46 51°13.634 2°56.019 0.1 251 7.7 103590 49
2012-03-27 06:33:51 51°13.635 2°56.019 0.1 283 7.7 103590 49
2012-03-27 06:33:56 51°13.635 2°56.019 -999 251 7.7 103590 49
2012-03-27 06:34:02 51°13.635 2°56.019 -999 283 7.7 103590 49
2012-03-27 06:34:06 51°13.635 2°56.019 -999 251 7.7 103590 49
2012-03-27 06:34:11 51°13.635 2°56.019 -999 283 7.7 103590 49
2012-03-27 06:34:16 51°13.635 2°56.019 -999 249 7.7 103590 49
2012-03-27 06:34:22 51°13.635 2°56.019 1.4 280 7.7 103590 49
2012-03-27 06:34:26 51°13.635 2°56.019 0.6 252 7.7 103590 49
2012-03-27 06:34:31 51°13.635 2°56.019 0.2 283 7.7 103590 49
2012-03-27 06:34:36 51°13.635 2°56.019 0.1 248 7.7 103590 49
2012-03-27 06:34:42 51°13.635 2°56.019 0.1 283 7.7 103590 49
2012-03-27 06:34:46 51°13.635 2°56.019 -999 247 7.7 103590 49
2012-03-27 06:34:51 51°13.635 2°56.019 -999 283 7.7 103590 49
2012-03-27 06:34:56 51°13.635 2°56.019 -999 250 7.7 103590 49
2012-03-27 06:35:02 51°13.635 2°56.019 -999 283 7.7 103590 49
2012-03-27 06:35:06 51°13.635 2°56.019 -999 251 7.7 103590 49
2012-03-27 06:35:11 51°13.635 2°56.019 -999 283 7.7 103590 49
2012-03-27 06:35:16 51°13.635 2°56.019 -999 252 7.7 103590 48
2012-03-27 06:35:21 51°13.635 2°56.019 -999 283 7.7 103590 48
2012-03-27 06:35:27 51°13.635 2°56.019 -999 250 7.7 103590 49
2012-03-27 06:35:31 51°13.635 2°56.019 -999 283 7.7 103590 49
2012-03-27 06:35:36 51°13.634 2°56.019 -999 251 7.7 103590 49
2012-03-27 06:35:41 51°13.634 2°56.019 -999 283 7.7 103590 49
2012-03-27 06:35:47 51°13.635 2°56.019 -999 251 7.7 103590 49
2012-03-27 06:35:51 51°13.635 2°56.019 -999 283 7.7 103590 49
2012-03-27 06:35:56 51°13.635 2°56.019 -999 251 7.7 103590 49
2012-03-27 06:36:02 51°13.635 2°56.019 -999 283 7.7 103590 49
2012-03-27 06:36:06 51°13.635 2°56.019 -999 250 7.7 103590 49
2012-03-27 06:36:11 51°13.635 2°56.019 -999 283 7.7 103590 49
2012-03-27 06:36:16 51°13.635 2°56.019 -999 251 7.7 103590 49
2012-03-27 06:36:21 51°13.635 2°56.019 -999 283 7.7 103590 49
2012-03-27 06:36:26 51°13.635 2°56.019 -999 249 7.7 103590 49
2012-03-27 06:36:31 51°13.635 2°56.019 -999 283 7.7 103590 49
2012-03-27 06:36:36 51°13.635 2°56.019 -999 247 7.7 103590 49
2012-03-27 06:36:42 51°13.635 2°56.019 -999 283 7.7 103590 49
2012-03-27 06:36:46 51°13.635 2°56.019 -999 248 7.7 103590 49
2012-03-27 06:36:51 51°13.635 2°56.019 -999 283 7.7 103590 49
2012-03-27 06:36:56 51°13.635 2°56.019 -999 248 7.7 103590 49
2012-03-27 06:37:02 51°13.635 2°56.019 -999 283 7.7 103590 49
2012-03-27 06:37:06 51°13.635 2°56.019 -999 23 7.7 103590 49
2012-03-27 06:37:11 51°13.635 2°56.019 -999 283 7.7 103590 49
2012-03-27 06:37:16 51°13.635 2°56.019 -999 247 7.7 103590 49
2012-03-27 06:37:22 51°13.634 2°56.019 -999 283 7.7 103590 49
2012-03-27 06:37:26 51°13.634 2°56.019 0.2 247 7.7 103590 49
2012-03-27 06:37:31 51°13.634 2°56.019 0.1 283 7.7 103590 49
2012-03-27 06:37:36 51°13.634 2°56.019 0.1 242 7.8 103590 49
2012-03-27 06:37:41 51°13.635 2°56.019 -999 283 7.8 103590 49
2012-03-27 06:37:46 51°13.635 2°56.019 0.1 20 7.8 103590 49
2012-03-27 06:37:51 51°13.634 2°56.019 0.1 283 7.8 103590 49
2012-03-27 06:37:56 51°13.634 2°56.019 0.1 240 7.8 103590 48
2012-03-27 06:38:01 51°13.634 2°56.019 -999 283 7.8 103590 48
2012-03-27 06:38:06 51°13.634 2°56.019 -999 247 7.8 103590 49
2012-03-27 06:38:11 51°13.634 2°56.019 -999 283 7.8 103590 49
2012-03-27 06:38:16 51°13.634 2°56.019 -999 242 7.8 103590 49
2012-03-27 06:38:21 51°13.634 2°56.019 -999 283 7.8 103590 49
2012-03-27 06:38:26 51°13.633 2°56.018 -999 23 7.8 103590 49
2012-03-27 06:38:31 51°13.633 2°56.018 -999 282 7.8 103590 49
2012-03-27 06:38:36 51°13.634 2°56.017 -999 28 7.8 103590 49
2012-03-27 06:38:41 51°13.634 2°56.016 0.5 287 7.8 103590 49
2012-03-27 06:38:46 51°13.634 2°56.013 0.2 245 7.8 103590 49
2012-03-27 06:38:51 51°13.635 2°56.01 0.3 282 7.8 103590 49
2012-03-27 06:38:56 51°13.635 2°56.007 0.8 20 7.8 103590 48
2012-03-27 06:39:01 51°13.637 2°56.001 0.4 281 7.8 103590 48
2012-03-27 06:39:06 51°13.638 2°55.996 0.1 251 7.8 103590 49
2012-03-27 06:39:11 51°13.64 2°55.99 0.1 283 7.8 103590 49
2012-03-27 06:39:16 51°13.641 2°55.985 0.1 252 7.8 103590 49
2012-03-27 06:39:22 51°13.642 2°55.977 0.7 283 7.8 103590 49
2012-03-27 06:39:26 51°13.643 2°55.971 0.4 252 7.8 103600 49
2012-03-27 06:39:31 51°13.645 2°55.964 0.8 279 7.8 103600 49
2012-03-27 06:39:36 51°13.646 2°55.957 0.8 253 7.8 103590 49
2012-03-27 06:39:42 51°13.648 2°55.949 0.6 281 7.8 103590 49
2012-03-27 06:39:47 51°13.65 2°55.941 1.3 268 7.8 103590 49
2012-03-27 06:39:51 51°13.652 2°55.935 1.2 278 7.8 103590 49
2012-03-27 06:39:56 51°13.653 2°55.926 0.6 267 7.8 103590 48
2012-03-27 06:40:01 51°13.655 2°55.918 1.3 77 7.8 103590 48
2012-03-27 06:40:07 51°13.658 2°55.908 1.4 19 7.8 103600 49
2012-03-27 06:40:11 51°13.66 2°55.902 1.2 73 7.8 103600 49
2012-03-27 06:40:16 51°13.662 2°55.893 1.3 38 7.8 103590 49
2012-03-27 06:40:21 51°13.665 2°55.884 1.1 74 7.8 103590 49
2012-03-27 06:40:26 51°13.667 2°55.875 1.2 33 7.8 103590 49
2012-03-27 06:40:31 51°13.671 2°55.866 1.9 82 7.8 103590 49
2012-03-27 06:40:36 51°13.674 2°55.856 1.8 29 7.8 103590 48
2012-03-27 06:40:41 51°13.678 2°55.848 1.6 73 7.8 103590 48
2012-03-27 06:40:46 51°13.681 2°55.839 1.9 33 7.8 103590 48
2012-03-27 06:40:51 51°13.685 2°55.829 2.3 80 7.8 103590 48
2012-03-27 06:40:56 51°13.689 2°55.821 3 22 7.8 103590 48
2012-03-27 06:41:01 51°13.694 2°55.812 2.6 77 7.8 103590 48
2012-03-27 06:41:06 51°13.698 2°55.803 2.9 38 7.8 103590 48
2012-03-27 06:41:11 51°13.703 2°55.794 3 82 7.8 103590 48
2012-03-27 06:41:16 51°13.707 2°55.786 3 21 7.8 103590 49
2012-03-27 06:41:22 51°13.713 2°55.776 3.1 74 7.8 103590 49
2012-03-27 06:41:26 51°13.718 2°55.77 2.9 28 7.8 103600 48
2012-03-27 06:41:31 51°13.722 2°55.762 2.8 75 7.8 103600 48
2012-03-27 06:41:36 51°13.728 2°55.754 3.2 33 7.8 103600 47
2012-03-27 06:41:42 51°13.734 2°55.744 3.4 74 7.8 103600 47
2012-03-27 06:41:46 51°13.738 2°55.737 3.7 28 7.8 103590 48
2012-03-27 06:41:51 51°13.743 2°55.729 3 78 7.8 103590 48
2012-03-27 06:41:56 51°13.748 2°55.722 2.3 38 7.8 103590 48
2012-03-27 06:42:01 51°13.754 2°55.714 3.1 80 7.8 103590 48
2012-03-27 06:42:07 51°13.76 2°55.704 3.1 18 7.8 103590 47
2012-03-27 06:42:11 51°13.765 2°55.698 3.1 75 7.8 103590 47
2012-03-27 06:42:16 51°13.771 2°55.69 3 38 7.8 103590 47
2012-03-27 06:42:21 51°13.776 2°55.683 3.1 79 7.8 103590 47
2012-03-27 06:42:27 51°13.784 2°55.674 2.9 25 7.8 103600 48
2012-03-27 06:42:31 51°13.788 2°55.668 3.6 79 7.8 103600 48
2012-03-27 06:42:36 51°13.794 2°55.662 3.2 35 7.8 103600 47
2012-03-27 06:42:41 51°13.801 2°55.656 3.7 75 7.8 103600 47
2012-03-27 06:42:46 51°13.807 2°55.65 3.3 31 7.8 103600 47
2012-03-27 06:42:51 51°13.814 2°55.645 3.4 74 7.8 103600 47
2012-03-27 06:42:56 51°13.821 2°55.64 4 21 7.8 103600 48
2012-03-27 06:43:01 51°13.828 2°55.635 2.6 74 7.8 103600 48
2012-03-27 06:43:06 51°13.835 2°55.631 1.9 39 7.8 103600 47
2012-03-27 06:43:11 51°13.842 2°55.628 2.1 78 7.8 103600 47
2012-03-27 06:43:16 51°13.849 2°55.625 2.9 20 7.9 103600 45
2012-03-27 06:43:22 51°13.858 2°55.622 3.8 80 7.9 103600 45
2012-03-27 06:43:26 51°13.864 2°55.62 3.2 24 7.9 103600 47
2012-03-27 06:43:31 51°13.872 2°55.619 3.3 73 7.9 103600 47
2012-03-27 06:43:36 51°13.879 2°55.618 1.7 19 7.9 103600 47
2012-03-27 06:43:42 51°13.887 2°55.617 2.5 81 7.9 103600 47
2012-03-27 06:43:46 51°13.893 2°55.617 2.9 27 8 103600 47
2012-03-27 06:43:51 51°13.9 2°55.618 2.6 77 8 103600 47
2012-03-27 06:43:56 51°13.908 2°55.619 2.5 29 8 103600 47
2012-03-27 06:44:02 51°13.915 2°55.621 2.6 80 8 103600 47
2012-03-27 06:44:07 51°13.922 2°55.623 1.9 30 8.1 103600 48
2012-03-27 06:44:11 51°13.927 2°55.625 1.2 80 8.1 103600 48
2012-03-27 06:44:16 51°13.933 2°55.627 2.7 34 8.1 103590 47
2012-03-27 06:44:21 51°13.938 2°55.63 1.7 75 8.1 103590 47
2012-03-27 06:44:27 51°13.945 2°55.634 2.7 21 8.1 103600 47
2012-03-27 06:44:31 51°13.949 2°55.636 1.5 74 8.1 103600 47
2012-03-27 06:44:36 51°13.953 2°55.639 0.4 39 8.2 103600 47
2012-03-27 06:44:41 51°13.958 2°55.643 1.9 77 8.2 103600 47
2012-03-27 06:44:46 51°13.962 2°55.646 3.2 27 8.3 103600 47
2012-03-27 06:44:51 51°13.965 2°55.649 2.2 78 8.3 103600 47
2012-03-27 06:44:56 51°13.968 2°55.651 1.9 21 8.3 103600 48
2012-03-27 06:45:01 51°13.971 2°55.654 2.6 76 8.3 103600 48
2012-03-27 06:45:06 51°13.974 2°55.657 1.9 32 8.4 103590 47
2012-03-27 06:45:11 51°13.975 2°55.658 0.9 82 8.4 103590 47
2012-03-27 06:45:16 51°13.977 2°55.66 1.3 21 8.4 103590 47
2012-03-27 06:45:22 51°13.978 2°55.662 1.9 81 8.4 103590 47
2012-03-27 06:45:26 51°13.979 2°55.662 1 41 8.4 103590 47
2012-03-27 06:45:31 51°13.98 2°55.662 0.9 35 8.4 103590 47
2012-03-27 06:45:36 51°13.98 2°55.661 0.4 32 8.4 103590 46
2012-03-27 06:45:42 51°13.981 2°55.659 0.5 29 8.4 103590 46
2012-03-27 06:45:46 51°13.981 2°55.658 0.8 31 8.4 103590 46
2012-03-27 06:45:51 51°13.981 2°55.655 0.9 20 8.4 103590 46
2012-03-27 06:45:56 51°13.981 2°55.652 0.5 22 8.4 103590 46
2012-03-27 06:46:02 51°13.981 2°55.648 1.2 19 8.4 103590 45
2012-03-27 06:46:07 51°13.982 2°55.644 0.5 17 8.4 103590 45
2012-03-27 06:46:11 51°13.983 2°55.641 0.8 14 8.4 103590 46
2012-03-27 06:46:16 51°13.984 2°55.636 1.1 10 8.4 103590 46
2012-03-27 06:46:22 51°13.986 2°55.63 0.8 7 8.4 103590 46
2012-03-27 06:46:27 51°13.988 2°55.625 0.3 360 8.4 103590 46
2012-03-27 06:46:31 51°13.991 2°55.62 0.7 358 8.4 103590 46
2012-03-27 06:46:36 51°13.993 2°55.613 1.1 358 8.4 103590 46
2012-03-27 06:46:41 51°13.997 2°55.605 1.5 357 8.4 103590 46
2012-03-27 06:46:47 51°14.001 2°55.596 1.7 357 8.4 103590 46
2012-03-27 06:46:51 51°14.004 2°55.589 2.3 348 8.4 103590 46
2012-03-27 06:46:56 51°14.009 2°55.58 2.5 347 8.4 103590 46
2012-03-27 06:47:01 51°14.014 2°55.57 3.1 282 8.4 103590 46
2012-03-27 06:47:06 51°14.02 2°55.561 3.2 343 8.4 103590 46
2012-03-27 06:47:11 51°14.025 2°55.551 3 281 8.4 103590 47
2012-03-27 06:47:16 51°14.032 2°55.54 3.2 346 8.4 103590 47
2012-03-27 06:47:21 51°14.038 2°55.53 4.4 351 8.4 103590 47
2012-03-27 06:47:26 51°14.046 2°55.52 3.9 342 8.4 103590 47
2012-03-27 06:47:31 51°14.054 2°55.51 4.5 285 8.4 103590 48
2012-03-27 06:47:36 51°14.062 2°55.5 4.4 342 8.3 103590 48
2012-03-27 06:47:41 51°14.071 2°55.49 4.8 280 8.3 103590 48
2012-03-27 06:47:46 51°14.08 2°55.481 4.5 343 8.3 103590 49
2012-03-27 06:47:51 51°14.089 2°55.471 5 279 8.3 103590 49
2012-03-27 06:47:56 51°14.099 2°55.461 5.6 348 8.3 103590 49
2012-03-27 06:48:02 51°14.11 2°55.449 5.2 284 8.3 103590 49
2012-03-27 06:48:07 51°14.121 2°55.439 5.2 346 8.3 103590 49
2012-03-27 06:48:11 51°14.129 2°55.431 4.5 284 8.3 103590 49
2012-03-27 06:48:16 51°14.139 2°55.42 5 347 8.3 103590 49
2012-03-27 06:48:22 51°14.152 2°55.407 5.4 279 8.3 103590 49
2012-03-27 06:48:26 51°14.161 2°55.399 5.6 345 8.2 103590 48
2012-03-27 06:48:31 51°14.172 2°55.388 4.8 285 8.2 103590 48
2012-03-27 06:48:36 51°14.183 2°55.377 5.7 348 8.2 103590 48
2012-03-27 06:48:41 51°14.194 2°55.367 4.8 284 8.2 103600 49
2012-03-27 06:48:46 51°14.205 2°55.355 5.1 346 8.2 103590 49
2012-03-27 06:48:51 51°14.216 2°55.344 5.3 287 8.2 103590 49
2012-03-27 06:48:56 51°14.228 2°55.332 5.5 346 8.1 103590 50
2012-03-27 06:49:01 51°14.239 2°55.321 5.3 348 8.1 103590 50
2012-03-27 06:49:06 51°14.251 2°55.308 5.4 345 8.1 103590 50
2012-03-27 06:49:11 51°14.262 2°55.296 5.1 280 8.1 103590 50
2012-03-27 06:49:16 51°14.274 2°55.284 5.2 347 8.1 103590 50
2012-03-27 06:49:21 51°14.286 2°55.272 5.3 280 8.1 103590 50
2012-03-27 06:49:26 51°14.297 2°55.26 5.4 347 8.1 103590 50
2012-03-27 06:49:31 51°14.309 2°55.248 5.3 279 8 103590 51
2012-03-27 06:49:36 51°14.321 2°55.236 5.5 348 8 103590 51
2012-03-27 06:49:42 51°14.336 2°55.221 5.3 283 8 103590 51
2012-03-27 06:49:46 51°14.345 2°55.212 5.6 347 8 103590 51
2012-03-27 06:49:51 51°14.358 2°55.2 5.8 346 8 103590 51
2012-03-27 06:49:56 51°14.37 2°55.188 6.4 348 8 103590 51
2012-03-27 06:50:02 51°14.385 2°55.175 5.9 346 8 103590 51
2012-03-27 06:50:06 51°14.395 2°55.166 5.7 349 8 103590 51
2012-03-27 06:50:11 51°14.408 2°55.154 6 347 7.9 103600 51
2012-03-27 06:50:16 51°14.421 2°55.143 6.7 346 7.9 103590 52
2012-03-27 06:50:22 51°14.437 2°55.129 6.5 348 7.9 103590 52
2012-03-27 06:50:26 51°14.447 2°55.12 6.5 348 7.9 103590 52
2012-03-27 06:50:31 51°14.46 2°55.108 6 280 7.9 103590 52
2012-03-27 06:50:36 51°14.473 2°55.096 5.9 348 7.9 103590 52
2012-03-27 06:50:41 51°14.486 2°55.083 7 285 7.9 103590 51
2012-03-27 06:50:46 51°14.499 2°55.071 6.2 346 7.9 103590 51
2012-03-27 06:50:51 51°14.512 2°55.059 6.4 348 7.9 103590 51
2012-03-27 06:50:55 51°14.522 2°55.048 6.2 349 7.9 103600 53
2012-03-27 06:51:00 51°14.535 2°55.034 5.9 351 7.9 103600 53
2012-03-27 06:51:05 51°14.547 2°55.019 6.2 350 7.9 103590 52
2012-03-27 06:51:10 51°14.557 2°55.001 5 280 7.9 103590 52
2012-03-27 06:51:15 51°14.568 2°54.983 5.7 348 7.9 103590 52
2012-03-27 06:51:19 51°14.576 2°54.968 5.5 346 7.8 103590 51
2012-03-27 06:51:24 51°14.588 2°54.949 6.3 348 7.8 103590 52
2012-03-27 06:51:29 51°14.599 2°54.931 6.1 347 7.8 103590 52
2012-03-27 06:51:34 51°14.61 2°54.913 5.5 347 7.8 103590 52
2012-03-27 06:51:39 51°14.622 2°54.895 6.4 281 7.8 103590 52
2012-03-27 06:51:43 51°14.632 2°54.881 6.8 350 7.8 103590 52
2012-03-27 06:51:48 51°14.644 2°54.863 6.2 279 7.8 103590 53
2012-03-27 06:51:53 51°14.657 2°54.845 5.6 347 7.8 103590 53
2012-03-27 06:51:58 51°14.67 2°54.827 6.1 283 7.8 103590 53
2012-03-27 06:52:03 51°14.682 2°54.809 6.4 346 7.8 103590 52
2012-03-27 06:52:08 51°14.695 2°54.791 6.5 282 7.8 103590 52
2012-03-27 06:52:13 51°14.708 2°54.774 6.2 349 7.8 103590 52
2012-03-27 06:52:18 51°14.721 2°54.756 6.1 347 7.8 103590 52
2012-03-27 06:52:23 51°14.735 2°54.739 6.4 347 7.8 103590 52
2012-03-27 06:52:28 51°14.749 2°54.722 7.2 280 7.8 103590 52
2012-03-27 06:52:33 51°14.763 2°54.706 6.4 346 7.8 103590 52
2012-03-27 06:52:38 51°14.776 2°54.69 6.8 279 7.8 103590 53
2012-03-27 06:52:43 51°14.79 2°54.674 6.4 346 7.8 103590 53
2012-03-27 06:52:47 51°14.801 2°54.661 6.4 347 7.8 103590 53
2012-03-27 06:52:53 51°14.818 2°54.642 6.9 345 7.8 103590 53
2012-03-27 06:52:58 51°14.832 2°54.627 7 281 7.8 103590 53
2012-03-27 06:53:03 51°14.847 2°54.613 7.8 346 7.8 103590 52
2012-03-27 06:53:08 51°14.862 2°54.599 6.3 281 7.8 103590 52
2012-03-27 06:53:13 51°14.877 2°54.586 6.4 346 7.8 103590 53
2012-03-27 06:53:18 51°14.892 2°54.573 2.3 348 7.8 103590 53
2012-03-27 06:53:23 51°14.907 2°54.56 7.2 348 7.8 103590 52
2012-03-27 06:53:28 51°14.922 2°54.547 7.3 347 7.8 103590 52
2012-03-27 06:53:33 51°14.938 2°54.535 7.1 346 7.8 103590 52
2012-03-27 06:53:38 51°14.952 2°54.521 6.8 348 7.8 103590 53
2012-03-27 06:53:43 51°14.967 2°54.508 4.4 346 7.8 103590 53
2012-03-27 06:53:48 51°14.982 2°54.494 4 348 7.8 103590 53
2012-03-27 06:53:53 51°14.997 2°54.479 5.5 347 7.8 103590 53
2012-03-27 06:53:58 51°15.011 2°54.465 6.9 347 7.8 103590 52
2012-03-27 06:54:03 51°15.025 2°54.449 7.1 347 7.8 103590 53
2012-03-27 06:54:08 51°15.039 2°54.434 5.8 281 7.8 103590 53
2012-03-27 06:54:13 51°15.054 2°54.419 6.4 348 7.8 103590 53
2012-03-27 06:54:18 51°15.069 2°54.407 0.2 348 7.8 103590 53
2012-03-27 06:54:23 51°15.084 2°54.393 0.1 346 7.8 103590 53
2012-03-27 06:54:28 51°15.099 2°54.38 -999 348 7.8 103590 53
2012-03-27 06:54:33 51°15.114 2°54.368 -999 347 7.8 103590 53
2012-03-27 06:54:38 51°15.13 2°54.358 -999 282 7.8 103590 53
2012-03-27 06:54:43 51°15.146 2°54.348 -999 347 7.8 103590 53
2012-03-27 06:54:47 51°15.159 2°54.341 -999 283 7.8 103590 53
2012-03-27 06:54:53 51°15.177 2°54.331 -999 345 7.8 103590 53
2012-03-27 06:54:58 51°15.194 2°54.324 -999 283 7.8 103590 53
2012-03-27 06:55:03 51°15.21 2°54.316 -999 346 7.8 103590 53
2012-03-27 06:55:08 51°15.226 2°54.309 -999 283 7.8 103590 53
2012-03-27 06:55:13 51°15.242 2°54.302 -999 346 7.8 103580 52
2012-03-27 06:55:18 51°15.258 2°54.295 -999 283 7.8 103580 52
2012-03-27 06:55:23 51°15.275 2°54.289 -999 345 7.8 103590 52
2012-03-27 06:55:28 51°15.291 2°54.282 -999 282 7.8 103590 52
2012-03-27 06:55:33 51°15.307 2°54.276 -999 346 7.8 103590 52
2012-03-27 06:55:38 51°15.323 2°54.271 -999 283 7.8 103590 52
2012-03-27 06:55:43 51°15.34 2°54.266 -999 345 7.8 103590 52
2012-03-27 06:55:48 51°15.356 2°54.261 -999 283 7.8 103590 52
2012-03-27 06:55:53 51°15.373 2°54.258 -999 343 7.8 103590 52
2012-03-27 06:55:58 51°15.389 2°54.254 -999 283 7.8 103590 52
2012-03-27 06:56:03 51°15.405 2°54.251 -999 342 7.8 103590 52
2012-03-27 06:56:08 51°15.421 2°54.248 -999 283 7.8 103590 52
2012-03-27 06:56:13 51°15.438 2°54.247 -999 343 7.8 103590 52
2012-03-27 06:56:18 51°15.455 2°54.245 -999 283 7.8 103590 52
2012-03-27 06:56:23 51°15.471 2°54.243 -999 343 7.8 103590 52
2012-03-27 06:56:28 51°15.488 2°54.242 -999 283 7.8 103590 52
2012-03-27 06:56:33 51°15.504 2°54.24 -999 344 7.8 103600 51
2012-03-27 06:56:38 51°15.52 2°54.239 -999 282 7.8 103600 51
2012-03-27 06:56:43 51°15.537 2°54.237 -999 344 7.9 103590 52
2012-03-27 06:56:48 51°15.553 2°54.235 -999 283 7.9 103590 52
2012-03-27 06:56:53 51°15.57 2°54.232 -999 343 7.9 103590 52
2012-03-27 06:56:58 51°15.586 2°54.229 -999 283 7.9 103590 52
2012-03-27 06:57:03 51°15.603 2°54.225 -999 344 7.9 103590 52
2012-03-27 06:57:07 51°15.616 2°54.221 -999 282 7.9 103590 52
2012-03-27 06:57:13 51°15.636 2°54.214 -999 344 7.9 103590 52
2012-03-27 06:57:18 51°15.652 2°54.209 -999 282 7.9 103590 52
2012-03-27 06:57:23 51°15.668 2°54.203 -999 344 7.9 103590 52
2012-03-27 06:57:28 51°15.684 2°54.197 -999 282 7.9 103590 52
2012-03-27 06:57:33 51°15.7 2°54.19 -999 344 7.9 103590 52
2012-03-27 06:57:38 51°15.717 2°54.184 -999 282 7.9 103590 52
2012-03-27 06:57:43 51°15.733 2°54.179 -999 344 7.9 103590 52
2012-03-27 06:57:48 51°15.75 2°54.174 -999 283 7.9 103590 52
2012-03-27 06:57:53 51°15.766 2°54.169 -999 343 7.9 103590 52
2012-03-27 06:57:58 51°15.783 2°54.165 0.1 343 7.9 103590 52
2012-03-27 06:58:03 51°15.799 2°54.161 0.1 342 7.9 103590 52
2012-03-27 06:58:08 51°15.816 2°54.157 6.6 285 7.9 103590 52
2012-03-27 06:58:13 51°15.832 2°54.154 7.9 342 7.9 103590 52
2012-03-27 06:58:18 51°15.849 2°54.152 0.1 283 7.9 103590 52
2012-03-27 06:58:23 51°15.865 2°54.149 0.1 341 7.9 103590 52
2012-03-27 06:58:28 51°15.882 2°54.147 -999 283 7.9 103590 52
2012-03-27 06:58:33 51°15.898 2°54.145 -999 341 7.9 103590 52
2012-03-27 06:58:38 51°15.914 2°54.144 -999 282 7.9 103590 52
2012-03-27 06:58:43 51°15.931 2°54.143 -999 339 7.9 103590 52
2012-03-27 06:58:47 51°15.944 2°54.144 -999 282 7.9 103590 52
2012-03-27 06:58:53 51°15.964 2°54.147 -999 338 7.9 103590 52
2012-03-27 06:58:58 51°15.98 2°54.152 -999 283 7.9 103590 52
2012-03-27 06:59:03 51°15.995 2°54.158 -999 338 7.9 103590 52
2012-03-27 06:59:07 51°16.007 2°54.162 -999 283 7.9 103600 52
2012-03-27 06:59:13 51°16.025 2°54.17 -999 337 7.9 103590 51
2012-03-27 06:59:18 51°16.04 2°54.176 -999 283 7.9 103590 51
2012-03-27 06:59:23 51°16.054 2°54.182 -999 337 7.9 103590 52
2012-03-27 06:59:28 51°16.067 2°54.187 -999 282 7.9 103590 52
2012-03-27 06:59:33 51°16.079 2°54.193 -999 337 7.9 103590 52
2012-03-27 06:59:38 51°16.09 2°54.198 -999 282 7.9 103600 52
2012-03-27 06:59:43 51°16.101 2°54.202 -999 338 7.9 103610 52
2012-03-27 06:59:48 51°16.111 2°54.206 -999 283 7.9 103610 52
2012-03-27 06:59:53 51°16.122 2°54.21 -999 338 7.9 103610 52
2012-03-27 06:59:58 51°16.132 2°54.214 -999 283 7.9 103600 52
2012-03-27 07:00:03 51°16.141 2°54.217 -999 341 7.9 103600 52
2012-03-27 07:00:08 51°16.15 2°54.219 -999 282 7.9 103600 52
2012-03-27 07:00:13 51°16.159 2°54.222 -999 340 7.9 103600 52
2012-03-27 07:00:18 51°16.168 2°54.224 -999 282 7.9 103600 52
2012-03-27 07:00:23 51°16.177 2°54.227 -999 340 8 103600 52
2012-03-27 07:00:28 51°16.185 2°54.228 -999 282 8 103600 52
2012-03-27 07:00:33 51°16.193 2°54.231 -999 342 8 103600 52
2012-03-27 07:00:38 51°16.201 2°54.232 -999 282 7.9 103590 52
2012-03-27 07:00:43 51°16.208 2°54.234 -999 340 7.9 103590 52
2012-03-27 07:00:48 51°16.215 2°54.235 -999 283 7.9 103590 52
2012-03-27 07:00:53 51°16.222 2°54.237 -999 341 8 103590 52
2012-03-27 07:00:58 51°16.229 2°54.239 -999 282 8 103590 52
2012-03-27 07:01:03 51°16.235 2°54.241 -999 341 8 103600 52
2012-03-27 07:01:07 51°16.24 2°54.242 -999 283 8 103600 52
2012-03-27 07:01:13 51°16.248 2°54.243 -999 340 8 103600 52
2012-03-27 07:01:18 51°16.253 2°54.245 -999 282 8 103600 52
2012-03-27 07:01:23 51°16.259 2°54.247 -999 340 8 103600 52
2012-03-27 07:01:27 51°16.264 2°54.248 -999 282 8 103600 52
2012-03-27 07:01:33 51°16.27 2°54.251 -999 338 8 103600 52
2012-03-27 07:01:38 51°16.275 2°54.253 -999 282 8 103600 52
2012-03-27 07:01:43 51°16.281 2°54.256 1.8 336 8 103600 52
2012-03-27 07:01:48 51°16.285 2°54.259 1.5 282 8 103600 52
2012-03-27 07:01:53 51°16.29 2°54.262 1.6 333 8 103600 52
2012-03-27 07:01:58 51°16.293 2°54.266 1.5 280 8 103600 51
2012-03-27 07:02:03 51°16.297 2°54.27 1.4 330 8 103600 52
2012-03-27 07:02:08 51°16.3 2°54.274 1.4 282 8 103600 52
2012-03-27 07:02:13 51°16.303 2°54.278 1.4 327 8 103600 52
2012-03-27 07:02:18 51°16.305 2°54.282 1.3 282 8 103600 52
2012-03-27 07:02:23 51°16.307 2°54.287 1 325 8 103600 51
2012-03-27 07:02:28 51°16.308 2°54.291 1.2 282 8 103600 51
2012-03-27 07:02:33 51°16.31 2°54.295 1.1 319 8 103600 51
2012-03-27 07:02:38 51°16.311 2°54.298 2.4 286 8 103600 52
2012-03-27 07:02:43 51°16.311 2°54.3 4.4 319 8 103600 52
2012-03-27 07:02:48 51°16.312 2°54.302 4.2 284 8 103600 52
2012-03-27 07:02:53 51°16.313 2°54.302 4.3 319 8 103600 51
2012-03-27 07:02:58 51°16.313 2°54.302 3.7 284 8 103600 51
2012-03-27 07:03:03 51°16.313 2°54.302 4 40 8 103600 51
2012-03-27 07:03:08 51°16.313 2°54.302 3.7 278 8 103600 51
2012-03-27 07:03:13 51°16.313 2°54.301 3.2 30 8 103600 51
2012-03-27 07:03:18 51°16.312 2°54.3 3.5 279 8 103600 51
2012-03-27 07:03:23 51°16.312 2°54.299 3.9 32 8 103600 51
2012-03-27 07:03:27 51°16.312 2°54.299 4 284 8.1 103600 51
2012-03-27 07:03:33 51°16.311 2°54.297 3.2 37 8.1 103600 52
2012-03-27 07:03:38 51°16.311 2°54.297 3.5 281 8.1 103600 52
2012-03-27 07:03:43 51°16.31 2°54.296 3.7 235 8.1 103600 52
2012-03-27 07:03:48 51°16.31 2°54.295 4 280 8.1 103600 52
2012-03-27 07:03:53 51°16.31 2°54.294 4 237 8.1 103600 51
2012-03-27 07:03:58 51°16.309 2°54.293 3.8 286 8.1 103600 51
2012-03-27 07:04:03 51°16.308 2°54.292 3.7 239 8.1 103600 51
2012-03-27 07:04:08 51°16.308 2°54.291 3.7 280 8.1 103600 51
2012-03-27 07:04:13 51°16.307 2°54.289 3.6 240 8.1 103600 51
2012-03-27 07:04:18 51°16.307 2°54.288 3.7 284 8.1 103600 52
2012-03-27 07:04:23 51°16.306 2°54.287 3.3 240 8.1 103600 52
2012-03-27 07:04:28 51°16.306 2°54.286 4 279 8.1 103600 52
2012-03-27 07:04:33 51°16.305 2°54.285 3.7 243 8.1 103600 52
2012-03-27 07:04:38 51°16.304 2°54.284 3.5 282 8.1 103600 50
2012-03-27 07:04:43 51°16.304 2°54.283 3.1 245 8.1 103600 51
2012-03-27 07:04:48 51°16.303 2°54.281 3.6 280 8.1 103600 51
2012-03-27 07:04:53 51°16.303 2°54.28 3.2 248 8.1 103600 51
2012-03-27 07:04:58 51°16.302 2°54.279 3.4 281 8.1 103600 51
2012-03-27 07:05:03 51°16.301 2°54.277 3.4 247 8.2 103600 52
2012-03-27 07:05:08 51°16.301 2°54.276 2.2 285 8.2 103600 52
2012-03-27 07:05:13 51°16.3 2°54.274 3.6 250 8.2 103610 51
2012-03-27 07:05:18 51°16.299 2°54.273 3.5 284 8.2 103610 51
2012-03-27 07:05:23 51°16.299 2°54.272 3.5 253 8.2 103600 51
2012-03-27 07:05:28 51°16.298 2°54.27 3.2 278 8.2 103600 51
2012-03-27 07:05:33 51°16.297 2°54.269 3.7 253 8.2 103600 51
2012-03-27 07:05:38 51°16.296 2°54.267 3.3 286 8.2 103600 51
2012-03-27 07:05:43 51°16.295 2°54.265 3.8 253 8.2 103600 51
2012-03-27 07:05:47 51°16.295 2°54.264 3.9 281 8.2 103600 51
2012-03-27 07:05:53 51°16.294 2°54.262 3.7 256 8.2 103610 52
2012-03-27 07:05:58 51°16.293 2°54.261 3.4 279 8.2 103610 52
2012-03-27 07:06:03 51°16.293 2°54.259 3.9 256 8.2 103600 52
2012-03-27 07:06:08 51°16.292 2°54.257 4 279 8.2 103600 52
2012-03-27 07:06:13 51°16.291 2°54.255 4.2 259 8.2 103600 52
2012-03-27 07:06:18 51°16.29 2°54.254 3.7 280 8.2 103600 51
2012-03-27 07:06:23 51°16.29 2°54.252 4 259 8.2 103610 51
2012-03-27 07:06:28 51°16.289 2°54.25 4.1 285 8.2 103610 51
2012-03-27 07:06:33 51°16.288 2°54.248 3.7 261 8.2 103610 51
2012-03-27 07:06:38 51°16.287 2°54.247 3.5 283 8.2 103610 51
2012-03-27 07:06:43 51°16.287 2°54.245 3.4 261 8.2 103610 52
2012-03-27 07:06:48 51°16.286 2°54.243 3.1 285 8.2 103610 52
2012-03-27 07:06:53 51°16.285 2°54.242 3.3 261 8.2 103610 52
2012-03-27 07:06:58 51°16.284 2°54.24 4.1 285 8.2 103600 51
2012-03-27 07:07:03 51°16.284 2°54.238 3.4 262 8.2 103610 52
2012-03-27 07:07:08 51°16.283 2°54.236 3.7 285 8.2 103610 52
2012-03-27 07:07:13 51°16.282 2°54.234 3.1 263 8.2 103610 51
2012-03-27 07:07:18 51°16.281 2°54.232 3.3 286 8.2 103610 51
2012-03-27 07:07:23 51°16.28 2°54.23 2.3 263 8.2 103610 52
2012-03-27 07:07:28 51°16.28 2°54.229 2.4 282 8.2 103610 52
2012-03-27 07:07:33 51°16.279 2°54.227 2.7 265 8.2 103610 52
2012-03-27 07:07:38 51°16.278 2°54.225 2.7 286 8.2 103610 52
2012-03-27 07:07:43 51°16.277 2°54.223 2.6 264 8.2 103610 52
2012-03-27 07:07:48 51°16.276 2°54.221 2.4 282 8.2 103610 49
2012-03-27 07:07:53 51°16.276 2°54.219 2.2 265 8.2 103610 51
2012-03-27 07:07:58 51°16.275 2°54.218 2.1 286 8.2 103610 51
2012-03-27 07:08:03 51°16.274 2°54.216 1.9 265 8.2 103600 51
2012-03-27 07:08:08 51°16.273 2°54.213 2.1 278 8.2 103600 51
2012-03-27 07:08:13 51°16.272 2°54.212 2 267 8.2 103610 51
2012-03-27 07:08:18 51°16.272 2°54.21 2.4 285 8.2 103610 51
2012-03-27 07:08:23 51°16.271 2°54.208 2 265 8.3 103610 51
2012-03-27 07:08:28 51°16.27 2°54.206 1.6 282 8.3 103610 51
2012-03-27 07:08:33 51°16.269 2°54.204 2.3 270 8.3 103610 51
2012-03-27 07:08:38 51°16.268 2°54.202 1.7 283 8.2 103610 51
2012-03-27 07:08:43 51°16.267 2°54.2 2.3 266 8.3 103610 52
2012-03-27 07:08:48 51°16.267 2°54.198 2.2 278 8.3 103610 52
2012-03-27 07:08:53 51°16.266 2°54.196 1.9 266 8.3 103610 52
2012-03-27 07:08:58 51°16.265 2°54.194 2 284 8.3 103610 52
2012-03-27 07:09:03 51°16.264 2°54.192 2.1 268 8.3 103610 52
2012-03-27 07:09:08 51°16.264 2°54.19 2 278 8.3 103610 51
2012-03-27 07:09:13 51°16.263 2°54.188 2.3 269 8.3 103610 50
2012-03-27 07:09:18 51°16.262 2°54.186 2.4 269 8.3 103610 50
2012-03-27 07:09:23 51°16.261 2°54.184 1.4 266 8.3 103610 51
2012-03-27 07:09:28 51°16.261 2°54.182 1.5 287 8.3 103610 51
2012-03-27 07:09:33 51°16.26 2°54.18 1.9 268 8.3 103610 52
2012-03-27 07:09:38 51°16.259 2°54.178 2.3 283 8.3 103610 52
2012-03-27 07:09:43 51°16.258 2°54.176 2.1 266 8.3 103610 51
2012-03-27 07:09:48 51°16.258 2°54.174 2.4 286 8.3 103610 51
2012-03-27 07:09:53 51°16.257 2°54.173 2.2 267 8.3 103610 50
2012-03-27 07:09:58 51°16.256 2°54.17 2.1 287 8.3 103610 50
2012-03-27 07:10:03 51°16.255 2°54.168 2.3 268 8.3 103610 50
2012-03-27 07:10:07 51°16.255 2°54.167 2.1 286 8.3 103610 51
2012-03-27 07:10:13 51°16.254 2°54.164 1.9 267 8.2 103610 52
2012-03-27 07:10:18 51°16.253 2°54.162 2.2 279 8.2 103610 52
2012-03-27 07:10:23 51°16.252 2°54.16 1.6 266 8.2 103610 52
2012-03-27 07:10:28 51°16.252 2°54.158 2 284 8.2 103610 52
2012-03-27 07:10:33 51°16.251 2°54.156 1.8 267 8.2 103610 51
2012-03-27 07:10:38 51°16.25 2°54.155 1.9 282 8.2 103610 51
2012-03-27 07:10:43 51°16.249 2°54.153 1.6 268 8.2 103610 52
2012-03-27 07:10:48 51°16.249 2°54.151 1.9 280 8.2 103610 52
2012-03-27 07:10:53 51°16.248 2°54.149 2.1 266 8.2 103610 52
2012-03-27 07:10:58 51°16.247 2°54.147 2.1 285 8.2 103610 52
2012-03-27 07:11:03 51°16.246 2°54.145 2.6 267 8.2 103610 52
2012-03-27 07:11:08 51°16.245 2°54.143 2.3 284 8.2 103610 51
2012-03-27 07:11:13 51°16.245 2°54.141 2.1 267 8.2 103610 51
2012-03-27 07:11:18 51°16.244 2°54.138 1.8 266 8.2 103610 51
2012-03-27 07:11:23 51°16.243 2°54.137 2 266 8.2 103610 51
2012-03-27 07:11:28 51°16.242 2°54.135 1.8 281 8.2 103610 51
2012-03-27 07:11:33 51°16.241 2°54.132 1.7 266 8.2 103610 51
2012-03-27 07:11:38 51°16.241 2°54.13 1.8 281 8.2 103610 51
2012-03-27 07:11:43 51°16.24 2°54.129 2.3 267 8.2 103610 51
2012-03-27 07:11:48 51°16.239 2°54.126 2.7 285 8.2 103610 51
2012-03-27 07:11:53 51°16.238 2°54.124 1.9 266 8.2 103610 52
2012-03-27 07:11:58 51°16.238 2°54.122 1.9 288 8.2 103610 52
2012-03-27 07:12:03 51°16.237 2°54.12 2.4 264 8.2 103610 52
2012-03-27 07:12:08 51°16.236 2°54.118 2.1 286 8.2 103610 52
2012-03-27 07:12:13 51°16.235 2°54.116 2.1 268 8.2 103610 52
2012-03-27 07:12:18 51°16.235 2°54.114 1.9 286 8.2 103610 52
2012-03-27 07:12:23 51°16.234 2°54.112 1.9 267 8.2 103610 51
2012-03-27 07:12:28 51°16.233 2°54.11 1.8 281 8.2 103610 51
2012-03-27 07:12:33 51°16.232 2°54.108 2.6 270 8.2 103610 51
2012-03-27 07:12:38 51°16.232 2°54.106 1.6 280 8.2 103610 51
2012-03-27 07:12:43 51°16.231 2°54.104 1.5 265 8.2 103610 51
2012-03-27 07:12:48 51°16.23 2°54.102 1.6 283 8.2 103610 51
2012-03-27 07:12:53 51°16.229 2°54.1 1.7 265 8.2 103610 52
2012-03-27 07:12:58 51°16.228 2°54.098 1.8 283 8.2 103610 52
2012-03-27 07:13:03 51°16.228 2°54.096 1.4 265 8.2 103610 51
2012-03-27 07:13:08 51°16.227 2°54.094 1.8 285 8.2 103610 51
2012-03-27 07:13:13 51°16.226 2°54.092 2.2 269 8.2 103610 51
2012-03-27 07:13:18 51°16.226 2°54.09 1.5 280 8.2 103610 51
2012-03-27 07:13:23 51°16.225 2°54.088 1.9 265 8.2 103610 51
2012-03-27 07:13:28 51°16.224 2°54.085 2.3 281 8.2 103610 51
2012-03-27 07:13:33 51°16.223 2°54.084 2.3 267 8.2 103610 51
2012-03-27 07:13:38 51°16.223 2°54.082 1.8 279 8.2 103610 51
2012-03-27 07:13:43 51°16.222 2°54.08 1.3 265 8.2 103610 51
2012-03-27 07:13:48 51°16.221 2°54.078 1.9 285 8.2 103610 51
2012-03-27 07:13:53 51°16.22 2°54.075 2.9 263 8.2 103610 51
2012-03-27 07:13:58 51°16.219 2°54.073 1.9 278 8.2 103610 51
2012-03-27 07:14:03 51°16.219 2°54.071 2.5 264 8.2 103610 51
2012-03-27 07:14:08 51°16.218 2°54.069 1.9 278 8.2 103610 52
2012-03-27 07:14:13 51°16.217 2°54.067 2.3 264 8.2 103610 52
2012-03-27 07:14:18 51°16.216 2°54.065 1.9 279 8.2 103610 52
2012-03-27 07:14:23 51°16.216 2°54.063 1.8 265 8.2 103610 51
2012-03-27 07:14:28 51°16.215 2°54.061 2.2 287 8.2 103610 51
2012-03-27 07:14:33 51°16.214 2°54.06 1.7 264 8.2 103610 51
2012-03-27 07:14:38 51°16.213 2°54.057 1.7 284 8.2 103610 51
2012-03-27 07:14:43 51°16.212 2°54.055 2.2 264 8.2 103610 52
2012-03-27 07:14:48 51°16.212 2°54.053 2.3 283 8.2 103610 52
2012-03-27 07:14:53 51°16.211 2°54.051 2.2 263 8.2 103620 52
2012-03-27 07:14:58 51°16.21 2°54.049 2 277 8.2 103620 52
2012-03-27 07:15:03 51°16.209 2°54.047 1.8 265 8.2 103620 51
2012-03-27 07:15:08 51°16.209 2°54.045 1.6 286 8.2 103620 51
2012-03-27 07:15:13 51°16.208 2°54.043 2.2 262 8.2 103620 51
2012-03-27 07:15:18 51°16.207 2°54.041 1.8 286 8.2 103620 51
2012-03-27 07:15:23 51°16.206 2°54.039 3.1 263 8.2 103620 51
2012-03-27 07:15:27 51°16.206 2°54.037 1.8 281 8.2 103620 52
2012-03-27 07:15:33 51°16.205 2°54.035 2.1 264 8.2 103620 52
2012-03-27 07:15:38 51°16.204 2°54.033 1.4 287 8.2 103610 52
2012-03-27 07:15:43 51°16.203 2°54.03 1.5 266 8.2 103620 51
2012-03-27 07:15:48 51°16.202 2°54.028 1.8 286 8.2 103620 51
2012-03-27 07:15:53 51°16.201 2°54.026 1.7 265 8.2 103620 52
2012-03-27 07:15:58 51°16.201 2°54.024 1.9 288 8.2 103620 52
2012-03-27 07:16:03 51°16.2 2°54.022 1.8 264 8.2 103610 51
2012-03-27 07:16:08 51°16.199 2°54.02 2.2 282 8.2 103610 51
2012-03-27 07:16:13 51°16.198 2°54.018 2.5 263 8.2 103620 52
2012-03-27 07:16:18 51°16.198 2°54.016 1.8 286 8.2 103620 52
2012-03-27 07:16:23 51°16.197 2°54.014 2.8 264 8.2 103620 52
2012-03-27 07:16:28 51°16.196 2°54.012 1.8 279 8.2 103610 52
2012-03-27 07:16:33 51°16.195 2°54.009 1.7 265 8.2 103610 52
2012-03-27 07:16:38 51°16.194 2°54.007 1.6 284 8.2 103610 52
2012-03-27 07:16:43 51°16.193 2°54.005 1.9 265 8.2 103620 52
2012-03-27 07:16:48 51°16.192 2°54.003 2.5 284 8.2 103620 52
2012-03-27 07:16:53 51°16.191 2°54.002 2.6 261 8.2 103610 51
2012-03-27 07:16:58 51°16.19 2°54 3.8 279 8.2 103610 51
2012-03-27 07:17:03 51°16.188 2°53.999 3.1 255 8.2 103610 51
2012-03-27 07:17:08 51°16.185 2°53.999 3 280 8.2 103610 51
2012-03-27 07:17:13 51°16.183 2°53.999 3 248 8.2 103610 52
2012-03-27 07:17:18 51°16.181 2°54 3.1 283 8.2 103610 52
2012-03-27 07:17:23 51°16.178 2°54.001 3.3 242 8.2 103610 52
2012-03-27 07:17:28 51°16.176 2°54.003 3.2 285 8.2 103610 52
2012-03-27 07:17:33 51°16.174 2°54.006 4.1 31 8.2 103610 52
2012-03-27 07:17:38 51°16.172 2°54.009 3.3 286 8.2 103610 52
2012-03-27 07:17:43 51°16.17 2°54.012 3.2 35 8.2 103610 52
2012-03-27 07:17:47 51°16.169 2°54.015 4.5 279 8.2 103610 53
2012-03-27 07:17:53 51°16.168 2°54.021 3.8 315 8.2 103610 53
2012-03-27 07:17:58 51°16.168 2°54.025 3.7 279 8.2 103610 50
2012-03-27 07:18:03 51°16.167 2°54.03 3.9 319 8.2 103610 52
2012-03-27 07:18:08 51°16.168 2°54.035 4.4 279 8.2 103610 52
2012-03-27 07:18:13 51°16.168 2°54.039 4.1 324 8.3 103610 52
2012-03-27 07:18:18 51°16.169 2°54.044 4.8 283 8.3 103610 52
2012-03-27 07:18:23 51°16.172 2°54.051 5.1 329 8.2 103610 50
2012-03-27 07:18:28 51°16.175 2°54.057 5.7 286 8.2 103610 50
2012-03-27 07:18:33 51°16.179 2°54.065 4.6 333 8.2 103620 52
2012-03-27 07:18:38 51°16.184 2°54.072 6.5 286 8.2 103620 52
2012-03-27 07:18:43 51°16.19 2°54.081 5.7 333 8.2 103620 52
2012-03-27 07:18:48 51°16.197 2°54.089 6 281 8.2 103610 52
2012-03-27 07:18:53 51°16.204 2°54.099 4.7 333 8.2 103610 52
2012-03-27 07:18:58 51°16.211 2°54.108 2.5 281 8.2 103610 52
2012-03-27 07:19:03 51°16.219 2°54.118 2.5 333 8.2 103610 52
2012-03-27 07:19:08 51°16.228 2°54.129 2.5 288 8.2 103610 52
2012-03-27 07:19:13 51°16.236 2°54.139 2.5 333 8.2 103620 51
2012-03-27 07:19:18 51°16.245 2°54.15 0.1 283 8.2 103620 51
2012-03-27 07:19:23 51°16.254 2°54.16 0.1 333 8.2 103610 51
2012-03-27 07:19:28 51°16.263 2°54.171 -999 282 8.2 103610 51
2012-03-27 07:19:33 51°16.272 2°54.183 -999 330 8.3 103620 51
2012-03-27 07:19:38 51°16.281 2°54.195 -999 282 8.3 103620 51
2012-03-27 07:19:43 51°16.29 2°54.207 -999 331 8.3 103620 51
2012-03-27 07:19:47 51°16.297 2°54.218 -999 282 8.2 103610 51
2012-03-27 07:19:53 51°16.307 2°54.234 -999 330 8.2 103610 51
2012-03-27 07:19:58 51°16.315 2°54.248 -999 282 8.2 103610 51
2012-03-27 07:20:03 51°16.323 2°54.262 -999 329 8.2 103610 51
2012-03-27 07:20:08 51°16.33 2°54.276 -999 282 8.2 103610 51
2012-03-27 07:20:13 51°16.337 2°54.291 -999 328 8.2 103610 51
2012-03-27 07:20:18 51°16.344 2°54.307 -999 328 8.2 103610 51
2012-03-27 07:20:23 51°16.35 2°54.322 -999 327 8.2 103620 51
2012-03-27 07:20:28 51°16.353 2°54.336 -999 283 8.2 103620 51
2012-03-27 07:20:33 51°16.357 2°54.35 -999 322 8.2 103620 51
2012-03-27 07:20:38 51°16.359 2°54.362 -999 283 8.2 103620 51
2012-03-27 07:20:43 51°16.36 2°54.373 -999 319 8.2 103620 52
2012-03-27 07:20:48 51°16.36 2°54.383 -999 283 8.2 103620 52
2012-03-27 07:20:53 51°16.361 2°54.393 -999 317 8.2 103620 52
2012-03-27 07:20:58 51°16.36 2°54.401 -999 282 8.2 103620 52
2012-03-27 07:21:03 51°16.36 2°54.409 -999 35 8.2 103620 51
2012-03-27 07:21:08 51°16.359 2°54.415 -999 283 8.2 103620 51
2012-03-27 07:21:13 51°16.357 2°54.421 -999 35 8.2 103620 52
2012-03-27 07:21:18 51°16.356 2°54.427 -999 283 8.2 103620 52
2012-03-27 07:21:23 51°16.354 2°54.43 -999 236 8.3 103610 52
2012-03-27 07:21:28 51°16.352 2°54.433 -999 283 8.3 103610 52
2012-03-27 07:21:33 51°16.35 2°54.435 -999 242 8.3 103610 52
2012-03-27 07:21:38 51°16.349 2°54.437 -999 283 8.3 103610 52
2012-03-27 07:21:43 51°16.348 2°54.437 -999 248 8.3 103610 52
2012-03-27 07:21:47 51°16.347 2°54.437 -999 282 8.3 103620 52
2012-03-27 07:21:53 51°16.345 2°54.436 -999 253 8.3 103620 52
2012-03-27 07:21:58 51°16.344 2°54.435 -999 283 8.3 103620 52
2012-03-27 07:22:03 51°16.343 2°54.434 -999 257 8.3 103620 52
2012-03-27 07:22:08 51°16.342 2°54.433 -999 283 8.3 103620 52
2012-03-27 07:22:13 51°16.341 2°54.431 -999 257 8.3 103620 52
2012-03-27 07:22:18 51°16.34 2°54.43 -999 282 8.3 103620 52
2012-03-27 07:22:23 51°16.339 2°54.429 -999 262 8.3 103620 52
2012-03-27 07:22:28 51°16.338 2°54.427 -999 282 8.3 103620 52
2012-03-27 07:22:33 51°16.337 2°54.425 -999 264 8.3 103620 52
2012-03-27 07:22:38 51°16.335 2°54.423 -999 283 8.3 103620 52
2012-03-27 07:22:43 51°16.334 2°54.422 -999 265 8.3 103620 52
2012-03-27 07:22:48 51°16.333 2°54.42 -999 283 8.3 103620 52
2012-03-27 07:22:53 51°16.332 2°54.418 -999 268 8.3 103620 52
2012-03-27 07:22:58 51°16.331 2°54.416 -999 283 8.3 103620 52
2012-03-27 07:23:03 51°16.33 2°54.414 -999 267 8.3 103620 52
2012-03-27 07:23:08 51°16.329 2°54.412 -999 282 8.3 103620 52
2012-03-27 07:23:13 51°16.328 2°54.41 -999 270 8.3 103620 51
2012-03-27 07:23:18 51°16.327 2°54.408 -999 -999 8.3 103620 51
2012-03-27 07:23:23 51°16.326 2°54.405 -999 270 8.3 103620 52
2012-03-27 07:23:28 51°16.324 2°54.403 -999 283 8.3 103620 52
2012-03-27 07:23:33 51°16.323 2°54.401 -999 37 8.3 103620 52
2012-03-27 07:23:38 51°16.322 2°54.398 -999 286 8.3 103620 52
2012-03-27 07:23:43 51°16.321 2°54.396 -999 37 8.3 103620 51
2012-03-27 07:23:48 51°16.32 2°54.393 -999 78 8.3 103620 51
2012-03-27 07:23:53 51°16.318 2°54.391 -999 270 8.3 103620 51
2012-03-27 07:23:58 51°16.317 2°54.389 -999 78 8.3 103620 51
2012-03-27 07:24:03 51°16.316 2°54.386 -999 35 8.3 103630 52
2012-03-27 07:24:07 51°16.315 2°54.384 -999 78 8.3 103630 52
2012-03-27 07:24:13 51°16.314 2°54.381 -999 35 8.3 103620 52
2012-03-27 07:24:18 51°16.313 2°54.379 -999 -999 8.3 103620 52
2012-03-27 07:24:23 51°16.311 2°54.376 -999 35 8.3 103620 51
2012-03-27 07:24:28 51°16.311 2°54.374 -999 77 8.3 103620 51
2012-03-27 07:24:33 51°16.309 2°54.372 -999 35 8.3 103620 51
2012-03-27 07:24:38 51°16.308 2°54.369 -999 78 8.3 103620 51
2012-03-27 07:24:43 51°16.307 2°54.367 -999 35 8.3 103620 51
2012-03-27 07:24:48 51°16.306 2°54.364 -999 78 8.3 103620 51
2012-03-27 07:24:53 51°16.305 2°54.361 -999 35 8.3 103620 51
2012-03-27 07:24:58 51°16.304 2°54.359 -999 77 8.3 103620 52
2012-03-27 07:25:03 51°16.303 2°54.357 -999 35 8.3 103620 52
2012-03-27 07:25:08 51°16.302 2°54.354 -999 78 8.3 103620 52
2012-03-27 07:25:13 51°16.301 2°54.351 -999 35 8.3 103620 52
2012-03-27 07:25:18 51°16.299 2°54.349 -999 77 8.2 103620 52
2012-03-27 07:25:23 51°16.298 2°54.346 -999 35 8.3 103620 52
2012-03-27 07:25:28 51°16.297 2°54.343 -999 78 8.3 103620 52
2012-03-27 07:25:33 51°16.296 2°54.341 -999 35 8.3 103620 52
2012-03-27 07:25:38 51°16.295 2°54.338 -999 78 8.3 103620 52
2012-03-27 07:25:43 51°16.293 2°54.336 -999 35 8.2 103620 52
2012-03-27 07:25:48 51°16.292 2°54.333 -999 78 8.2 103620 52
2012-03-27 07:25:53 51°16.291 2°54.33 -999 35 8.2 103620 50
2012-03-27 07:25:58 51°16.29 2°54.328 -999 283 8.2 103620 50
2012-03-27 07:26:03 51°16.289 2°54.325 -999 270 8.2 103620 50
2012-03-27 07:26:07 51°16.288 2°54.323 -999 283 8.3 103620 51
2012-03-27 07:26:13 51°16.287 2°54.32 -999 269 8.2 103620 51
2012-03-27 07:26:18 51°16.286 2°54.317 -999 282 8.2 103620 51
2012-03-27 07:26:23 51°16.284 2°54.315 -999 40 8.3 103620 51
2012-03-27 07:26:28 51°16.283 2°54.312 -999 283 8.3 103620 51
2012-03-27 07:26:33 51°16.282 2°54.309 -999 269 8.3 103620 51
2012-03-27 07:26:38 51°16.281 2°54.307 -999 283 8.3 103620 52
2012-03-27 07:26:43 51°16.28 2°54.305 -999 269 8.3 103620 51
2012-03-27 07:26:48 51°16.279 2°54.302 -999 282 8.3 103620 51
2012-03-27 07:26:53 51°16.278 2°54.299 -999 270 8.3 103620 51
2012-03-27 07:26:58 51°16.277 2°54.297 -999 283 8.3 103620 52
2012-03-27 07:27:03 51°16.275 2°54.294 -999 268 8.3 103620 52
2012-03-27 07:27:08 51°16.274 2°54.292 -999 283 8.3 103620 52
2012-03-27 07:27:13 51°16.273 2°54.289 -999 268 8.3 103620 52
2012-03-27 07:27:18 51°16.272 2°54.286 -999 -999 8.3 103620 52
2012-03-27 07:27:23 51°16.271 2°54.284 -999 270 8.3 103620 52
2012-03-27 07:27:28 51°16.27 2°54.282 -999 282 8.3 103620 52
2012-03-27 07:27:33 51°16.269 2°54.279 -999 270 8.3 103620 52
2012-03-27 07:27:38 51°16.268 2°54.277 -999 282 8.3 103620 52
2012-03-27 07:27:43 51°16.267 2°54.274 -999 267 8.3 103620 52
2012-03-27 07:27:48 51°16.266 2°54.272 -999 282 8.3 103620 52
2012-03-27 07:27:53 51°16.265 2°54.269 -999 265 8.3 103620 52
2012-03-27 07:27:58 51°16.264 2°54.266 -999 283 8.3 103620 52
2012-03-27 07:28:03 51°16.262 2°54.264 -999 269 8.3 103620 52
2012-03-27 07:28:07 51°16.262 2°54.261 -999 282 8.3 103620 52
2012-03-27 07:28:13 51°16.26 2°54.259 -999 267 8.3 103620 52
2012-03-27 07:28:18 51°16.259 2°54.256 -999 -999 8.3 103620 52
2012-03-27 07:28:23 51°16.258 2°54.254 -999 266 8.3 103620 52
2012-03-27 07:28:27 51°16.257 2°54.251 -999 282 8.3 103620 52
2012-03-27 07:28:33 51°16.256 2°54.249 -999 267 8.3 103620 51
2012-03-27 07:28:38 51°16.255 2°54.246 -999 282 8.3 103620 51
2012-03-27 07:28:43 51°16.254 2°54.243 -999 269 8.3 103620 52
2012-03-27 07:28:48 51°16.253 2°54.241 -999 283 8.3 103620 52
2012-03-27 07:28:53 51°16.252 2°54.238 -999 268 8.3 103620 52
2012-03-27 07:28:58 51°16.251 2°54.236 -999 283 8.3 103620 52
2012-03-27 07:29:03 51°16.25 2°54.233 -999 269 8.3 103620 51
2012-03-27 07:29:08 51°16.249 2°54.23 -999 283 8.3 103620 51
2012-03-27 07:29:13 51°16.248 2°54.228 -999 268 8.3 103620 51
2012-03-27 07:29:18 51°16.247 2°54.225 -999 -999 8.3 103620 52
2012-03-27 07:29:23 51°16.246 2°54.223 -999 269 8.3 103620 52
2012-03-27 07:29:28 51°16.245 2°54.22 -999 282 8.3 103620 52
2012-03-27 07:29:33 51°16.244 2°54.217 -999 266 8.3 103620 52
2012-03-27 07:29:38 51°16.243 2°54.215 -999 283 8.3 103620 52
2012-03-27 07:29:43 51°16.242 2°54.213 -999 270 8.4 103620 52
2012-03-27 07:29:48 51°16.241 2°54.21 -999 282 8.4 103620 52
2012-03-27 07:29:53 51°16.24 2°54.207 -999 269 8.3 103620 52
2012-03-27 07:29:58 51°16.239 2°54.205 -999 282 8.3 103620 52
2012-03-27 07:30:03 51°16.238 2°54.202 -999 269 8.4 103620 52
2012-03-27 07:30:08 51°16.237 2°54.2 -999 282 8.4 103620 52
2012-03-27 07:30:13 51°16.236 2°54.197 -999 268 8.4 103620 52
2012-03-27 07:30:18 51°16.235 2°54.194 -999 282 8.4 103620 52
2012-03-27 07:30:23 51°16.234 2°54.192 -999 266 8.4 103620 52
2012-03-27 07:30:27 51°16.233 2°54.19 -999 282 8.4 103620 52
2012-03-27 07:30:33 51°16.232 2°54.186 -999 269 8.4 103620 52
2012-03-27 07:30:38 51°16.231 2°54.183 -999 282 8.4 103620 52
2012-03-27 07:30:43 51°16.23 2°54.18 -999 269 8.4 103620 52
2012-03-27 07:30:48 51°16.229 2°54.178 -999 283 8.4 103620 52
2012-03-27 07:30:53 51°16.228 2°54.176 -999 266 8.4 103620 52
2012-03-27 07:30:58 51°16.227 2°54.174 -999 283 8.4 103620 52
2012-03-27 07:31:03 51°16.226 2°54.171 -999 270 8.4 103620 52
2012-03-27 07:31:08 51°16.225 2°54.168 -999 283 8.4 103620 52
2012-03-27 07:31:13 51°16.224 2°54.165 -999 267 8.4 103620 52
2012-03-27 07:31:18 51°16.223 2°54.163 -999 283 8.4 103620 51
2012-03-27 07:31:23 51°16.223 2°54.16 -999 270 8.4 103630 52
2012-03-27 07:31:28 51°16.221 2°54.158 -999 282 8.4 103630 52
2012-03-27 07:31:33 51°16.221 2°54.155 -999 268 8.4 103630 52
2012-03-27 07:31:38 51°16.22 2°54.153 -999 282 8.4 103620 52
2012-03-27 07:31:43 51°16.219 2°54.15 -999 266 8.4 103620 51
2012-03-27 07:31:48 51°16.218 2°54.147 -999 282 8.4 103620 51
2012-03-27 07:31:53 51°16.217 2°54.145 -999 268 8.4 103620 51
2012-03-27 07:31:58 51°16.216 2°54.141 -999 283 8.4 103620 52
2012-03-27 07:32:03 51°16.215 2°54.139 -999 270 8.4 103620 52
2012-03-27 07:32:08 51°16.214 2°54.137 -999 282 8.4 103620 52
2012-03-27 07:32:13 51°16.213 2°54.135 -999 41 8.4 103620 52
2012-03-27 07:32:18 51°16.212 2°54.132 -999 269 8.4 103620 52
2012-03-27 07:32:23 51°16.211 2°54.129 -999 267 8.4 103620 52
2012-03-27 07:32:28 51°16.21 2°54.126 -999 282 8.4 103620 52
2012-03-27 07:32:33 51°16.209 2°54.123 -999 270 8.4 103620 52
2012-03-27 07:32:38 51°16.209 2°54.12 -999 282 8.4 103620 52
2012-03-27 07:32:43 51°16.208 2°54.118 -999 270 8.4 103620 52
2012-03-27 07:32:47 51°16.207 2°54.115 -999 282 8.4 103620 52
2012-03-27 07:32:53 51°16.206 2°54.112 -999 267 8.4 103620 52
2012-03-27 07:32:58 51°16.205 2°54.11 -999 77 8.4 103620 52
2012-03-27 07:33:03 51°16.204 2°54.107 -999 268 8.4 103620 52
2012-03-27 07:33:08 51°16.203 2°54.105 -999 282 8.4 103620 52
2012-03-27 07:33:13 51°16.202 2°54.102 -999 270 8.4 103620 52
2012-03-27 07:33:18 51°16.201 2°54.099 -999 -999 8.4 103620 52
2012-03-27 07:33:23 51°16.2 2°54.096 -999 270 8.4 103620 52
2012-03-27 07:33:28 51°16.199 2°54.093 -999 284 8.4 103620 52
2012-03-27 07:33:33 51°16.199 2°54.091 -999 269 8.4 103620 52
2012-03-27 07:33:38 51°16.197 2°54.089 -999 282 8.4 103620 52
2012-03-27 07:33:43 51°16.197 2°54.086 -999 266 8.4 103620 52
2012-03-27 07:33:48 51°16.196 2°54.083 -999 283 8.4 103620 52
2012-03-27 07:33:53 51°16.195 2°54.081 -999 270 8.4 103620 52
2012-03-27 07:33:58 51°16.194 2°54.078 -999 282 8.4 103620 51
2012-03-27 07:34:03 51°16.193 2°54.075 -999 323 8.4 103620 52
2012-03-27 07:34:08 51°16.192 2°54.072 -999 283 8.4 103620 52
2012-03-27 07:34:13 51°16.191 2°54.07 -999 269 8.4 103620 52
2012-03-27 07:34:18 51°16.19 2°54.066 -999 270 8.4 103620 52
2012-03-27 07:34:23 51°16.189 2°54.064 -999 267 8.4 103620 51
2012-03-27 07:34:28 51°16.188 2°54.061 -999 283 8.4 103620 51
2012-03-27 07:34:33 51°16.188 2°54.058 -999 269 8.4 103630 52
2012-03-27 07:34:38 51°16.187 2°54.056 -999 83 8.4 103630 52
2012-03-27 07:34:43 51°16.186 2°54.053 -999 267 8.4 103630 52
2012-03-27 07:34:47 51°16.185 2°54.051 -999 283 8.4 103630 52
2012-03-27 07:34:53 51°16.184 2°54.047 -999 268 8.4 103630 52
2012-03-27 07:34:58 51°16.183 2°54.044 -999 283 8.4 103630 52
2012-03-27 07:35:03 51°16.182 2°54.042 -999 268 8.4 103620 52
2012-03-27 07:35:08 51°16.181 2°54.039 -999 282 8.4 103620 52
2012-03-27 07:35:13 51°16.18 2°54.036 -999 267 8.4 103630 52
2012-03-27 07:35:18 51°16.179 2°54.033 -999 -999 8.4 103630 52
2012-03-27 07:35:23 51°16.178 2°54.03 -999 267 8.4 103630 52
2012-03-27 07:35:28 51°16.177 2°54.027 -999 283 8.4 103630 52
2012-03-27 07:35:33 51°16.176 2°54.025 -999 270 8.4 103630 52
2012-03-27 07:35:38 51°16.176 2°54.022 -999 283 8.4 103620 52
2012-03-27 07:35:43 51°16.175 2°54.019 -999 269 8.4 103630 52
2012-03-27 07:35:48 51°16.174 2°54.016 -999 282 8.4 103630 52
2012-03-27 07:35:53 51°16.173 2°54.014 -999 269 8.4 103630 52
2012-03-27 07:35:58 51°16.172 2°54.011 -999 282 8.4 103630 52
2012-03-27 07:36:03 51°16.171 2°54.008 -999 268 8.4 103620 52
2012-03-27 07:36:08 51°16.17 2°54.005 -999 283 8.4 103620 52
2012-03-27 07:36:13 51°16.169 2°54.002 -999 267 8.4 103630 52
2012-03-27 07:36:18 51°16.168 2°53.999 -999 267 8.4 103630 52
2012-03-27 07:36:23 51°16.167 2°53.996 -999 268 8.4 103630 52
2012-03-27 07:36:28 51°16.166 2°53.994 -999 282 8.4 103630 52
2012-03-27 07:36:33 51°16.165 2°53.991 -999 268 8.4 103630 51
2012-03-27 07:36:38 51°16.164 2°53.988 -999 283 8.4 103630 51
2012-03-27 07:36:43 51°16.164 2°53.985 -999 269 8.4 103630 52
2012-03-27 07:36:48 51°16.162 2°53.983 -999 282 8.4 103630 52
2012-03-27 07:36:53 51°16.162 2°53.98 -999 269 8.4 103630 52
2012-03-27 07:36:58 51°16.161 2°53.977 -999 283 8.4 103630 52
2012-03-27 07:37:03 51°16.16 2°53.974 -999 270 8.4 103630 51
2012-03-27 07:37:07 51°16.159 2°53.972 -999 283 8.4 103630 51
2012-03-27 07:37:13 51°16.158 2°53.969 -999 269 8.4 103630 52
2012-03-27 07:37:18 51°16.157 2°53.966 -999 -999 8.4 103630 52
2012-03-27 07:37:23 51°16.156 2°53.963 -999 36 8.4 103630 52
2012-03-27 07:37:28 51°16.155 2°53.961 -999 282 8.4 103630 52
2012-03-27 07:37:33 51°16.155 2°53.96 -999 270 8.4 103630 52
2012-03-27 07:37:38 51°16.153 2°53.955 -999 283 8.4 103630 52
2012-03-27 07:37:43 51°16.152 2°53.952 -999 269 8.4 103630 52
2012-03-27 07:37:48 51°16.152 2°53.949 -999 282 8.4 103630 52
2012-03-27 07:37:53 51°16.15 2°53.946 -999 270 8.4 103630 52
2012-03-27 07:37:58 51°16.15 2°53.943 -999 7 8.4 103620 52
2012-03-27 07:38:03 51°16.149 2°53.94 -999 37 8.3 103620 52
2012-03-27 07:38:08 51°16.148 2°53.937 -999 78 8.3 103620 52
2012-03-27 07:38:13 51°16.147 2°53.935 -999 270 8.4 103620 52
2012-03-27 07:38:18 51°16.146 2°53.931 -999 269 8.4 103620 52
2012-03-27 07:38:23 51°16.145 2°53.929 -999 270 8.3 103620 52
2012-03-27 07:38:28 51°16.144 2°53.925 -999 77 8.3 103620 52
2012-03-27 07:38:33 51°16.143 2°53.923 -999 37 8.4 103630 52
2012-03-27 07:38:38 51°16.142 2°53.92 -999 78 8.4 103630 52
2012-03-27 07:38:43 51°16.141 2°53.918 -999 35 8.4 103620 52
2012-03-27 07:38:48 51°16.14 2°53.915 -999 78 8.4 103620 52
2012-03-27 07:38:53 51°16.139 2°53.912 -999 35 8.3 103630 52
2012-03-27 07:38:58 51°16.138 2°53.909 -999 287 8.3 103630 52
2012-03-27 07:39:03 51°16.137 2°53.907 -999 38 8.3 103620 52
2012-03-27 07:39:07 51°16.137 2°53.904 -999 282 8.3 103620 52
2012-03-27 07:39:13 51°16.136 2°53.9 -999 270 8.3 103630 52
2012-03-27 07:39:18 51°16.135 2°53.897 -999 282 8.3 103630 52
2012-03-27 07:39:23 51°16.134 2°53.895 -999 270 8.3 103620 52
2012-03-27 07:39:28 51°16.133 2°53.892 -999 282 8.3 103620 52
2012-03-27 07:39:33 51°16.131 2°53.89 -999 270 8.3 103630 52
2012-03-27 07:39:38 51°16.129 2°53.887 -999 282 8.3 103630 52
2012-03-27 07:39:43 51°16.127 2°53.885 -999 265 8.3 103630 51
2012-03-27 07:39:48 51°16.124 2°53.882 -999 283 8.3 103630 51
2012-03-27 07:39:53 51°16.122 2°53.88 -999 256 8.3 103630 51
2012-03-27 07:39:58 51°16.119 2°53.88 -999 282 8.4 103620 52
2012-03-27 07:40:03 51°16.116 2°53.879 -999 252 8.4 103630 52
2012-03-27 07:40:08 51°16.113 2°53.879 -999 282 8.4 103630 52
2012-03-27 07:40:13 51°16.11 2°53.879 -999 244 8.4 103630 52
2012-03-27 07:40:18 51°16.107 2°53.88 -999 283 8.4 103630 52
2012-03-27 07:40:23 51°16.105 2°53.881 -999 240 8.4 103630 52
2012-03-27 07:40:28 51°16.102 2°53.882 -999 282 8.4 103630 52
2012-03-27 07:40:33 51°16.1 2°53.884 -999 235 8.4 103630 52
2012-03-27 07:40:38 51°16.097 2°53.887 -999 283 8.4 103630 52
2012-03-27 07:40:43 51°16.095 2°53.889 -999 35 8.4 103620 52
2012-03-27 07:40:48 51°16.094 2°53.892 -999 282 8.4 103620 52
2012-03-27 07:40:53 51°16.092 2°53.895 -999 35 8.4 103630 52
2012-03-27 07:40:58 51°16.091 2°53.898 -999 282 8.4 103630 52
2012-03-27 07:41:03 51°16.09 2°53.902 -999 317 8.4 103630 52
2012-03-27 07:41:08 51°16.09 2°53.906 0.1 288 8.4 103630 52
2012-03-27 07:41:13 51°16.09 2°53.909 0.1 323 8.4 103620 52
2012-03-27 07:41:18 51°16.09 2°53.912 0.1 282 8.4 103620 52
2012-03-27 07:41:23 51°16.09 2°53.915 -999 325 8.4 103630 52
2012-03-27 07:41:28 51°16.092 2°53.919 -999 282 8.4 103630 52
2012-03-27 07:41:33 51°16.093 2°53.922 -999 329 8.4 103630 52
2012-03-27 07:41:38 51°16.095 2°53.926 -999 282 8.4 103630 52
2012-03-27 07:41:43 51°16.096 2°53.929 -999 332 8.4 103630 52
2012-03-27 07:41:48 51°16.098 2°53.933 -999 282 8.4 103630 52
2012-03-27 07:41:53 51°16.101 2°53.937 -999 334 8.5 103630 52
2012-03-27 07:41:58 51°16.104 2°53.94 -999 282 8.5 103630 52
2012-03-27 07:42:03 51°16.108 2°53.945 -999 335 8.5 103630 52
2012-03-27 07:42:08 51°16.112 2°53.951 -999 282 8.5 103630 52
2012-03-27 07:42:13 51°16.118 2°53.958 -999 333 8.5 103630 52
2012-03-27 07:42:18 51°16.123 2°53.965 -999 -999 8.5 103630 52
2012-03-27 07:42:23 51°16.13 2°53.973 -999 334 8.5 103630 51
2012-03-27 07:42:28 51°16.137 2°53.983 -999 282 8.5 103630 51
2012-03-27 07:42:33 51°16.144 2°53.993 -999 333 8.5 103630 51
2012-03-27 07:42:38 51°16.152 2°54.003 -999 282 8.4 103620 52
2012-03-27 07:42:43 51°16.16 2°54.014 -999 333 8.4 103620 52
2012-03-27 07:42:48 51°16.167 2°54.025 -999 282 8.4 103620 52
2012-03-27 07:42:53 51°16.176 2°54.038 -999 332 8.4 103620 52
2012-03-27 07:42:58 51°16.184 2°54.05 -999 282 8.4 103620 52
2012-03-27 07:43:03 51°16.192 2°54.063 -999 331 8.4 103620 52
2012-03-27 07:43:08 51°16.199 2°54.077 -999 282 8.4 103620 52
2012-03-27 07:43:13 51°16.207 2°54.091 -999 332 8.4 103620 52
2012-03-27 07:43:18 51°16.215 2°54.105 -999 -999 8.4 103620 52
2012-03-27 07:43:23 51°16.223 2°54.119 -999 330 8.4 103630 52
2012-03-27 07:43:28 51°16.23 2°54.133 -999 282 8.4 103630 52
2012-03-27 07:43:33 51°16.238 2°54.147 -999 331 8.4 103630 52
2012-03-27 07:43:38 51°16.246 2°54.162 -999 282 8.4 103620 52
2012-03-27 07:43:43 51°16.254 2°54.177 -999 331 8.3 103630 52
2012-03-27 07:43:48 51°16.262 2°54.191 -999 283 8.3 103630 52
2012-03-27 07:43:53 51°16.27 2°54.206 -999 330 8.3 103620 52
2012-03-27 07:43:58 51°16.277 2°54.222 -999 282 8.3 103620 52
2012-03-27 07:44:03 51°16.284 2°54.239 -999 329 8.3 103630 52
2012-03-27 07:44:08 51°16.29 2°54.255 -999 282 8.3 103630 52
2012-03-27 07:44:13 51°16.295 2°54.272 -999 327 8.3 103620 52
2012-03-27 07:44:18 51°16.299 2°54.288 -999 -999 8.3 103620 52
2012-03-27 07:44:23 51°16.301 2°54.302 -999 324 8.3 103630 52
2012-03-27 07:44:28 51°16.303 2°54.316 -999 282 8.3 103630 52
2012-03-27 07:44:33 51°16.303 2°54.329 -999 320 8.3 103630 52
2012-03-27 07:44:38 51°16.303 2°54.341 -999 282 8.3 103630 52
2012-03-27 07:44:43 51°16.302 2°54.351 -999 319 8.3 103630 52
2012-03-27 07:44:47 51°16.301 2°54.359 -999 282 8.3 103630 52
2012-03-27 07:44:53 51°16.299 2°54.368 -999 315 8.3 103630 53
2012-03-27 07:44:58 51°16.298 2°54.376 -999 282 8.3 103630 53
2012-03-27 07:45:03 51°16.295 2°54.382 -999 35 8.3 103630 52
2012-03-27 07:45:08 51°16.293 2°54.387 -999 282 8.3 103630 52
2012-03-27 07:45:13 51°16.291 2°54.39 -999 35 8.3 103630 53
2012-03-27 07:45:18 51°16.289 2°54.393 -999 23 8.3 103630 53
2012-03-27 07:45:23 51°16.287 2°54.394 -999 241 8.3 103630 53
2012-03-27 07:45:28 51°16.286 2°54.394 -999 283 8.3 103630 53
2012-03-27 07:45:33 51°16.284 2°54.392 -999 254 8.3 103630 53
2012-03-27 07:45:38 51°16.284 2°54.391 -999 283 8.3 103630 53
2012-03-27 07:45:43 51°16.283 2°54.388 -999 259 8.3 103630 53
2012-03-27 07:45:48 51°16.283 2°54.385 -999 282 8.3 103630 53
2012-03-27 07:45:53 51°16.282 2°54.383 -999 259 8.3 103630 53
2012-03-27 07:45:58 51°16.282 2°54.381 -999 282 8.3 103630 53
2012-03-27 07:46:03 51°16.281 2°54.378 -999 261 8.3 103630 53
2012-03-27 07:46:08 51°16.281 2°54.376 -999 282 8.3 103630 53
2012-03-27 07:46:13 51°16.28 2°54.373 -999 261 8.3 103630 53
2012-03-27 07:46:18 51°16.279 2°54.371 -999 261 8.3 103630 53
2012-03-27 07:46:23 51°16.279 2°54.368 -999 263 8.3 103630 53
2012-03-27 07:46:28 51°16.278 2°54.366 -999 282 8.3 103630 53
2012-03-27 07:46:34 51°16.278 2°54.363 -999 263 8.3 103630 53
2012-03-27 07:46:39 51°16.277 2°54.36 -999 283 8.3 103630 53
2012-03-27 07:46:45 51°16.276 2°54.357 -999 266 8.3 103630 53
2012-03-27 07:46:51 51°16.276 2°54.354 -999 283 8.3 103630 52
2012-03-27 07:46:56 51°16.275 2°54.351 -999 265 8.3 103630 52
2012-03-27 07:47:02 51°16.274 2°54.348 -999 283 8.3 103640 52
2012-03-27 07:47:07 51°16.274 2°54.345 -999 266 8.3 103640 52
2012-03-27 07:47:11 51°16.273 2°54.343 -999 283 8.3 103640 53
2012-03-27 07:47:16 51°16.273 2°54.34 -999 268 8.3 103640 53
2012-03-27 07:47:21 51°16.272 2°54.338 -999 268 8.4 103640 53
2012-03-27 07:47:27 51°16.271 2°54.335 -999 267 8.4 103640 53
2012-03-27 07:47:31 51°16.271 2°54.333 -999 282 8.3 103630 52